User: anonymous   Login
Location: Unspecified
(50.5956°N, 0.0000°E)
Time: 16:17:42
(UTC+00:00)
Language:

Meteor 1-14 - Orbit

View from above orbital plane
View from above orbital plane
View from above satellite
View from above satellite

Ground track
Ground track

The orbit is defined by the following mean orbital elements,

1 06392U          26088.16882450 +.00000000 +00000-0 +15449-3 0 00007
2 06392  81.2415   5.7962 0055457  65.1076 295.5844 14.08100693    02
Epoch (UTC): 29 March 2026 04:03:06
Eccentricity: 0.0055457
inclination: 81.2415°
perigee height: 826 km
apogee height: 906 km
right ascension of ascending node: 5.7962°
argument of perigee: 65.1076°
revolutions per day: 14.08100693
mean anomaly at epoch: 295.5844°

The dashed part of the orbit path shows where the satellite is in the earth's shadow,  

DLR